Flight Track Log - Related Links

Times and Time Zones

All times are in EDT time to prevent confusion due to time zone crossing. See the SWA2874 flight status page for this flight to view local times or setup timezone preferences in your user account.

Time Position Orientation Groundspeed Altitude Reporting Facility
EDT Latitude Longitude Course Direction KTS MPH feet Rate Location/Type
Sun 07:43:09 PM 34.9797 -82.1453 73° East 226 260 5,800  Level Atlanta Center
Sun 07:44:10 PM 35.0011 -82.0583 73° East 241 277 9,600 3,322 Climbing Atlanta Center
Sun 07:45:10 PM 35.0353 -81.9636 66° East 277 319 12,500 2,650 Climbing Atlanta Center
Sun 07:46:10 PM 35.1117 -81.9314 19° North 277 319 14,900 2,500 Climbing Atlanta Center
Sun 07:47:10 PM 35.2247 -81.9386 357° North 345 397 17,500 2,750 Climbing Atlanta Center
Sun 07:48:10 PM 35.3414 -81.9433 358° North 398 458 20,400 2,723 Climbing Atlanta Center
Sun 07:49:09 PM 35.4428 -81.8822 26° Northeast 405 466 22,900 1,537 Climbing Atlanta Center
Sun 07:50:11 PM 35.4883 -81.7458 68° East 389 448 23,500 1,537 Climbing Atlanta Center
Sun 07:51:10 PM 35.5375 -81.5964 68° East 411 473 26,000 2,319 Climbing Atlanta Center
Sun 07:52:10 PM 35.5828 -81.4597 68° East 428 493 28,100 1,750 Climbing Atlanta Center
Sun 07:53:10 PM 35.6275 -81.3178 69° East 435 501 29,500 1,765 Climbing Atlanta Center
Sun 07:54:09 PM 35.6681 -81.1758 71° East 450 518 31,600 1,866 Climbing Atlanta Center
Sun 07:55:09 PM 35.7189 -81.0283 67° East 455 524 33,200 1,587 Climbing Atlanta Center
Sun 07:56:10 PM 35.7653 -80.8806 69° East 465 535 34,800 1,850 Climbing Atlanta Center
Sun 07:57:09 PM 35.8219 -80.7403 63° Northeast 457 526 36,900 1,450 Climbing Atlanta Center
Sun 07:58:10 PM 35.9019 -80.6086 53° Northeast 466 536 37,700 843 Climbing Atlanta Center
Sun 07:59:10 PM 35.9711 -80.4750 57° Northeast 466 536 38,600 491 Climbing Atlanta Center
Sun 08:00:49 PM 36.1014 -80.2347 56° Northeast 510 587 39,000 150 Climbing Washington Center
Sun 08:01:50 PM 36.1675 -80.0919 60° Northeast 486 559 39,000  Level Washington Center
Sun 08:02:50 PM 36.2300 -79.9797 55° Northeast 450 518 39,000  Level Washington Center
Sun 08:03:49 PM 36.2997 -79.8419 58° Northeast 450 518 39,000 -403 Level Washington Center
Sun 08:04:49 PM 36.3650 -79.7011 60° Northeast 458 527 38,200 -843 Descending Washington Center
Sun 08:05:50 PM 36.4303 -79.5675 59° Northeast 458 527 37,300 -885 Descending Washington Center
Sun 08:06:51 PM 36.4994 -79.4264 59° Northeast 458 527 36,400 -958 Descending Washington Center
Sun 08:07:49 PM 36.5642 -79.2900 59° Northeast 458 527 35,400 -1,059 Descending Washington Center
Sun 08:08:50 PM 36.6419 -79.1383 57° Northeast 458 527 34,300 -1,835 Descending Washington Center
Sun 08:09:50 PM 36.7064 -79.0014 60° Northeast 458 527 31,700 -2,479 Descending Washington Center
Sun 08:10:51 PM 36.7728 -78.8669 58° Northeast 452 520 29,300 -1,339 Descending Washington Center
Sun 08:11:51 PM 36.8281 -78.7497 59° Northeast 452 520 29,000 -153 Descending Washington Center
Sun 08:12:49 PM 36.8919 -78.6200 58° Northeast 441 507 29,000  Level Washington Center
Sun 08:13:49 PM 36.9556 -78.4900 58° Northeast 435 501 29,000 -446 Level Washington Center
Sun 08:14:50 PM 37.0236 -78.3442 60° Northeast 441 507 28,100 -942 Descending Washington Center
Sun 08:15:50 PM 37.0850 -78.2161 59° Northeast 435 501 27,100 -1,000 Descending Washington Center
Sun 08:16:50 PM 37.1417 -78.0958 59° Northeast 420 483 26,100 -545 Descending Washington Center
Sun 08:17:51 PM 37.2050 -77.9647 59° Northeast 415 478 26,000 -443 Descending Washington Center
Sun 08:18:52 PM 37.2883 -77.8578 46° Northeast 425 489 25,200 -915 Descending Washington Center
Sun 08:19:49 PM 37.3981 -77.7903 26° Northeast 420 483 24,200 -1,026 Descending Washington Center
Sun 08:20:49 PM 37.5036 -77.7200 28° Northeast 426 490 23,200 -590 Descending Washington Center
Sun 08:21:51 PM 37.6072 -77.6497 28° Northeast 421 484 23,000 -98 Descending Washington Center
Sun 08:22:51 PM 37.7125 -77.5842 26° Northeast 421 484 23,000  Level Washington Center
Sun 08:23:49 PM 37.8158 -77.5133 28° Northeast 416 479 23,000 -504 Level Washington Center
Sun 08:24:50 PM 37.9211 -77.4450 27° Northeast 416 479 22,000 -984 Descending Washington Center
Sun 08:25:51 PM 38.0244 -77.3736 29° Northeast 416 479 21,000 -908 Descending Washington Center
Sun 08:26:49 PM 38.1169 -77.3206 24° Northeast 411 473 20,200 -958 Descending Washington Center
Sun 08:27:50 PM 38.2139 -77.2539 28° Northeast 406 467 19,100 -1,835 Descending Washington Center
Sun 08:28:50 PM 38.3192 -77.1822 28° Northeast 401 461 16,500 -2,083 Descending Washington Center
Sun 08:29:51 PM 38.4056 -77.1072 34° Northeast 389 448 14,900 -1,785 Descending Washington Center
Sun 08:30:51 PM 38.4794 -77.0211 42° Northeast 369 425 12,900 -1,765 Descending Washington Center
Sun 08:31:50 PM 38.5494 -76.9350 44° Northeast 356 410 11,400 -1,322 Descending Washington Center
Sun 08:32:49 PM 38.6169 -76.8539 43° Northeast 337 388 10,300 -908 Descending Washington Center
Sun 08:33:49 PM 38.6783 -76.7778 44° Northeast 318 366 9,600 -793 Descending Washington Center
Sun 08:34:50 PM 38.7247 -76.6986 53° Northeast 291 335 8,700 -1,169 Descending Washington Center
Sun 08:35:47 PM 38.7667 -76.6167 57° Northeast 270 311 7,300 -1,385 Descending Potomac TRACON
Sun 08:36:47 PM 38.8000 -76.5333 63° Northeast 271 312 6,000 -1,050 Descending Potomac TRACON
Sun 08:37:47 PM 38.8833 -76.5500 351° North 277 319 5,200 -893 Descending Potomac TRACON
Sun 08:38:48 PM 38.9500 -76.5833 339° North 277 319 4,200 -595 Descending Potomac TRACON
Sun 08:39:48 PM 39.0000 -76.6500 314° West 273 314 4,000 -100 Descending Potomac TRACON
Sun 08:40:48 PM 39.0333 -76.7333 297° West 278 320 4,000  Level Potomac TRACON
Sun 08:41:48 PM 39.0667 -76.8167 297° West 280 322 4,000 -250 Level Potomac TRACON
Sun 08:42:48 PM 39.1167 -76.9000 308° West 252 290 3,500 -600 Descending Potomac TRACON
Sun 08:43:48 PM 39.1667 -76.8833 14° North 185 213 2,800 -800 Descending Potomac TRACON
Sun 08:44:48 PM 39.1667 -76.8333 90° East 162 186 1,900 -700 Descending Potomac TRACON
Sun 08:45:48 PM 39.1833 -76.7833 67° East 146 168 1,400 -550 Descending Potomac TRACON
Sun 08:46:48 PM 39.1833 -76.7333 90° East 133 153 800 -600 Descending Potomac TRACON
Sun 08:48:00 PM 39.1667 -76.6667 90° East  Level FlightAware Approximate
Sun 08:55:00 PM 39.1754 -76.6683 90° East  Level Estimated
Sun 08:56:00 PM 39.1754 -76.6683 90° East  Level Estimated

Login

Don't have an account? Register now (free) for customized features, flight alerts, and more!